RH
18 23 24 28 30 34 47 59 67 71 84 85 88 94 96 90 83 81 75 65 61 54 54 52 57 55 51 47 41 44 51 53 54 52 48 47 48 52 54 53 51 51 53 56
22 23 24 27 30 33 48 64 72 69 76 79 86 90 95 92 86 83 75 65 67 58 57 53 58 57 52 48 45 43 50 52 56 54 51 49 49 52 56 60 61 62 56 55
24 24 24 27 34 38 48 63 74 69 74 80 82 85 88 93 86 87 81 73 58 55 56 55 55 56 54 50 47 43 46 48 54 56 57 55 52 57 56 53 55 61 62 56
23 24 23 24 25 34 43 57 67 68 70 77 80 85 88 88 88 92 89 77 61 57 62 60 57 55 54 56 49 48 46 46 47 51 55 53 51 48 50 50 47 47 54 58
21 21 23 23 23 32 38 60 67 74 74 77 84 84 80 85 90 86 89 82 66 64 59 56 54 54 52 55 51 48 53 48 51 49 49 46 47 50 53 51 45 47 45 51
21 22 24 24 33 33 43 57 64 74 78 81 79 84 84 83 79 83 89 83 77 73 70 60 61 60 56 55 50 48 49 54 53 58 51 57 52 61 59 58 56 51 47 46
26 26 33 35 47 46 47 51 70 74 80 78 77 81 72 74 75 80 85 83 80 78 67 58 66 63 58 53 51 42 50 56 57 57 66 68 71 69 71 70 69 65 57 48
34 30 39 39 48 54 56 50 62 64 76 74 78 77 71 66 64 70 76 81 81 82 75 69 66 65 60 57 51 45 38 49 59 57 62 69 72 74 76 77 76 73 68 64
35 31 33 45 50 55 61 60 57 72 72 78 74 66 61 68 72 72 75 83 84 83 78 79 78 67 62 57 51 45 44 36 48 60 60 65 72 74 74 76 80 77 74 71
38 36 32 38 46 54 54 62 68 74 74 75 68 68 67 70 71 84 82 80 84 83 80 80 81 74 62 59 54 49 45 43 34 37 50 53 58 72 77 74 79 80 85 89
42 42 37 37 42 53 48 55 62 65 69 74 67 59 52 59 62 72 75 76 79 84 80 79 81 76 71 62 59 51 45 45 42 39 36 39 42 45 57 63 65 70 80 84
43 48 47 42 42 43 46 47 51 61 48 60 62 61 57 52 58 62 65 68 71 74 77 80 84 78 78 73 63 57 55 45 46 53 51 40 36 36 35 34 42 58 66 66
43 49 53 47 47 47 48 44 38 41 42 53 54 50 50 55 56 61 63 64 68 73 79 77 84 85 84 80 74 68 67 67 54 58 59 53 42 39 39 41 40 40 53 51
42 50 51 58 58 58 58 52 48 34 35 40 48 42 51 52 55 61 61 59 66 75 82 83 84 86 85 86 82 79 78 73 69 66 72 73 69 59 63 67 76 61 50 56
37 45 53 58 66 62 76 59 53 45 53 41 53 57 59 62 56 60 60 61 68 74 84 89 88 88 90 90 82 79 86 82 82 82 86 87 92 85 73 78 86 88 70 77
53 49 55 65 59 64 64 60 57 59 61 63 62 64 61 64 65 66 63 64 71 74 75 79 89 90 87 84 83 81 87 92 88 88 89 93 93 90 82 87 88 96 94 96
63 65 63 62 68 60 63 66 64 62 64 65 66 64 64 66 69 68 71 68 70 78 80 82 78 81 84 86 87 91 92 92 94 94 98 95 94 91 90 91 94 95 95 97
57 69 70 66 68 76 66 68 63 60 59 68 65 65 71 73 77 75 73 68 71 81 85 85 84 79 79 82 84 83 89 92 97 95 95 95 96 96 92 94 90 92 93 95
52 62 67 70 74 69 69 66 65 61 59 63 67 66 73 75 70 70 73 71 74 79 85 87 89 86 83 83 84 91 89 93 95 98 95 95 90 87 90 91 94 93 88 89
54 60 61 66 66 69 59 59 57 65 67 65 68 69 73 69 71 74 69 66 68 68 69 70 76 79 81 80 89 89 86 91 90 92 96 98 88 87 91 96 98 97 89 84
59 67 64 65 62 59 54 58 60 72 65 72 73 74 76 72 69 72 75 71 65 64 65 67 69 75 76 77 80 85 90 91 93 94 92 95 88 90 97 98 97 97 93 89
65 65 67 68 63 52 52 53 60 64 70 71 72 71 77 77 76 75 70 71 69 65 62 68 70 73 79 78 81 86 87 89 90 93 92 91 92 99 98 96 92 91 92 88
67 56 64 69 68 58 55 53 53 63 63 63 64 68 69 71 76 72 67 66 68 70 70 64 67 72 72 79 81 81 83 87 87 90 88 93 96 91 89 91 89 85 84 79
52 45 59 62 66 65 59 57 61 64 59 59 61 60 63 69 70 70 65 60 65 69 75 69 71 68 67 68 68 68 69 70 68 74 78 85 94 91 89 87 84 82 80 76
39 37 39 42 58 67 65 66 68 67 65 60 56 55 58 64 64 64 61 57 59 60 61 66 67 68 69 67 68 68 65 63 63 62 63 64 65 69 70 72 76 72 72 69
35 34 35 37 40 61 62 60 57 50 50 63 65 62 61 68 66 64 60 56 46 41 44 53 57 56 59 61 59 59 59 53 50 48 47 49 50 51 52 53 54 54 54 53